Clearfield, PA

8:35 PM EDT on April 24, 2018 (GMT -0400)
Clearfield-Lawrence

Weather History for KFIG - January, 2013

Change the Weather History Date:

Thursday, January 3, 2013

  Actual Average (KDUJ) Record (KDUJ)
Temperature  
Mean Temperature 16 °F -  
Max Temperature 28 °F 30 °F 56 °F (2004)
Min Temperature 3 °F 18 °F -6 °F (1979)
Degree Days  
Heating Degree Days 50    
Moisture  
Dew Point 9 °F    
Average Humidity 77    
Maximum Humidity 92    
Minimum Humidity 54    
Precipitation  
Precipitation 0.00 in - - ()
Sea Level Pressure  
Sea Level Pressure 30.16 in    
Wind  
Wind Speed 3 mph (SW)    
Max Wind Speed 15 mph    
Max Gust Speed 22 mph    
Visibility 8 miles    
Events Fog    
Averages and records for this station are not official NWS values.
T = Trace of Precipitation, MM = Missing Value Source: NWS Daily Summary

Daily Weather History Graph

Daily Weather History Graph

Search for Another Location

Airport or City:

Astronomy

Jan. 03, 2013 Rise Set
Actual Time 7:38 AM EST 4:57 PM EST
Civil Twilight 7:07 AM EST 5:28 PM EST
Nautical Twilight 6:33 AM EST 6:03 PM EST
Astronomical Twilight 6:00 AM EST 6:36 PM EST
Moon 11:35 PM EST (1/3) 10:46 AM EST (1/3)
Length of Visible Light 10h 20m
Length of Day
9h 19m
Waning Gibbous, 65% of the Moon is Illuminated
Jan 3
Waning Gibbous
Jan 4
Last Quarter
Jan 11
New
Jan 18
First Quarter
Jan 26
Full

Hourly Weather History & Observations

Time (EST) Temp. Windchill Dew Point Humidity Pressure Visibility Wind Dir Wind Speed Gust Speed Precip Events Conditions
12:54 AM 12.0 °F - 9.0 °F 88% 30.22 in 9.0 mi Calm Calm - N/A   Clear
1:23 AM 10.4 °F - 8.6 °F 92% 30.13 in 9.0 mi Calm Calm - N/A   Partly Cloudy
1:54 AM 8.1 °F 1.4 °F 6.1 °F 92% 30.22 in 10.0 mi NNW 3.5 mph - N/A   Clear
2:54 AM 8.1 °F - 5.0 °F 87% 30.23 in 10.0 mi Calm Calm - N/A   Clear
3:46 AM 6.8 °F - 3.2 °F 85% 30.14 in 10.0 mi Calm Calm - N/A   Scattered Clouds
3:54 AM 7.0 °F - 3.0 °F 84% 30.23 in 10.0 mi Calm Calm - N/A   Partly Cloudy
4:07 AM 6.8 °F - 3.2 °F 85% 30.14 in 5.0 mi Calm Calm - N/A   Mostly Cloudy
4:12 AM 6.8 °F - 3.2 °F 85% 30.14 in 1.8 mi Calm Calm - N/A   Mostly Cloudy
4:21 AM 6.8 °F - 5.0 °F 92% 30.13 in 0.5 mi Calm Calm - N/A Fog Light Freezing Fog
4:32 AM 8.6 °F - 5.0 °F 85% 30.14 in 1.0 mi Calm Calm - N/A   Overcast
4:40 AM 6.8 °F - 5.0 °F 92% 30.13 in 3.0 mi Calm Calm - N/A   Overcast
4:54 AM 7.0 °F - 3.0 °F 84% 30.22 in 5.0 mi Calm Calm - N/A   Overcast
5:54 AM 5.0 °F - 3.0 °F 92% 30.22 in 9.0 mi Calm Calm - N/A   Overcast
6:54 AM 5.0 °F - 1.9 °F 87% 30.22 in 9.0 mi Calm Calm - N/A   Overcast
7:54 AM 3.9 °F - 1.9 °F 91% 30.23 in 7.0 mi Calm Calm - N/A   Overcast
8:54 AM 5.0 °F - 3.0 °F 92% 30.22 in 6.0 mi Calm Calm - N/A   Overcast
9:25 AM 8.6 °F 2.0 °F 6.8 °F 92% 30.14 in 5.0 mi SSW 3.5 mph - N/A   Overcast
9:54 AM 9.0 °F -0.9 °F 6.1 °F 88% 30.23 in 7.0 mi SSW 5.8 mph - N/A   Partly Cloudy
10:28 AM 12.2 °F 2.9 °F 8.6 °F 85% 30.15 in 8.0 mi SSW 5.8 mph - N/A   Mostly Cloudy
10:54 AM 12.9 °F 2.6 °F 9.0 °F 84% 30.23 in 7.0 mi SSW 6.9 mph - N/A   Overcast
11:54 AM 19.0 °F 10.0 °F 10.9 °F 71% 30.19 in 10.0 mi SSW 6.9 mph - N/A   Overcast
12:54 PM 21.9 °F 11.7 °F 10.9 °F 63% 30.14 in 10.0 mi SSW 9.2 mph - N/A   Overcast
1:54 PM 24.1 °F 15.2 °F 10.0 °F 55% 30.12 in 10.0 mi SSW 8.1 mph - N/A   Mostly Cloudy
2:05 PM 24.8 °F 14.6 °F 10.4 °F 54% 30.04 in 10.0 mi SSW 10.4 mph - N/A   Mostly Cloudy
2:54 PM 27.0 °F 20.5 °F 12.9 °F 56% 30.11 in 10.0 mi SW 5.8 mph - N/A   Overcast
3:54 PM 28.0 °F 18.6 °F 15.1 °F 58% 30.11 in 10.0 mi SW 10.4 mph 17.3 mph N/A   Overcast
4:54 PM 28.0 °F 20.0 °F 17.1 °F 63% 30.11 in 10.0 mi SW 8.1 mph 18.4 mph N/A   Overcast
5:54 PM 28.0 °F 20.0 °F 17.1 °F 63% 30.13 in 10.0 mi WSW 8.1 mph - N/A   Overcast
6:54 PM 28.9 °F 18.2 °F 18.0 °F 64% 30.13 in 10.0 mi WSW 13.8 mph 19.6 mph N/A   Overcast
7:54 PM 28.9 °F 19.8 °F 18.0 °F 64% 30.14 in 10.0 mi WSW 10.4 mph 19.6 mph N/A   Overcast
8:54 PM 28.0 °F 17.5 °F 18.0 °F 66% 30.14 in 10.0 mi WSW 12.7 mph 19.6 mph N/A   Overcast
9:15 PM 28.4 °F 19.1 °F 17.6 °F 64% 30.06 in 10.0 mi West 10.4 mph 21.9 mph N/A   Overcast
9:54 PM 28.0 °F 19.3 °F 18.0 °F 66% 30.14 in 10.0 mi West 9.2 mph - N/A   Overcast
10:54 PM 27.0 °F 15.2 °F 18.0 °F 69% 30.15 in 10.0 mi WSW 15.0 mph 19.6 mph N/A   Overcast
11:54 PM 27.0 °F 18.0 °F 19.0 °F 72% 30.14 in 10.0 mi WSW 9.2 mph 18.4 mph N/A   Overcast